Regional Weather Roundup
Issued by NWS

Home | Current Version | Previous Version | Graphics & Text | Print | Product List | Glossary On
Versions: 1 2 3 4 5 6 7 8 9 10 11 12 13 14 15 16 17 18 19 20 21 22 23 24 25 26 27 28 29 30 31 32 33 34 35 36 37 38 39 40 41 42 43 44 45 46 47 48 49 50
000
ASUS43 KMKX 292107
RWRWI

WISCONSIN REGIONAL WEATHER ROUNDUP
NATIONAL WEATHER SERVICE MILWAUKEE/SULLIVAN WI
400 PM CDT FRI MAY 29 2015

NOTE: "FAIR" INDICATES FEW OR NO CLOUDS BELOW 12,000 FEET WITH NO
SIGNIFICANT WEATHER AND/OR OBSTRUCTIONS TO VISIBILITY.

WIZ001-002-006>008-014>016-023>028-292200-
NORTHWEST WISCONSIN

CITY           SKY/WX    TMP DP  RH WIND       PRES   REMARKS
SUPERIOR ARPT  DRIZZLE   63  56  76 N7        29.94R
ASHLAND        CLOUDY    66  60  81 N12       29.91R
HAYWARD        LGT RAIN  65  61  87 N3        29.91R
SIREN          RAIN      65  63  94 N5        29.92S
CUMBERLAND     RAIN      63  61  94 N7        29.91R
RICE LAKE      CLOUDY    64  61  91 NW6       29.91R
CHETEK         CLOUDY    67  64  92 MISG      29.89S
LADYSMITH      CLOUDY    69  64  84 NW3       29.90F
EAU CLAIRE     NOT AVBL
MENOMONIE      RAIN      69  65  85 SW8       29.90R
NEW RICHMOND   LGT RAIN  65  64  95 N9        29.92R
OSCEOLA        HVY RAIN  64  64 100 N6        29.94R
$$

WIZ003>005-009-010-017-018-292200-
NORTH CENTRAL WISCONSIN

CITY           SKY/WX    TMP DP  RH WIND       PRES   REMARKS
MANITOWISH WTR CLOUDY    67  62  83 W7        29.89F
ARBOR VITAE    CLOUDY    69  66  88 W3        29.90F
WOODRUFF       CLOUDY    69  66  88 W3        29.90F
RHINELANDER    CLOUDY    72  62  71 SW7       29.90F
EAGLE RIVER    LGT RAIN  68  62  82 W8        29.90F
LAND O LAKES   CLOUDY    69  64  84 W3        29.90F
PHILLIPS       CLOUDY    69  63  82 SW5       29.89F
TOMAHAWK       CLOUDY    69  62  77 W8        29.91S
MEDFORD        DRIZZLE   67  64  92 S3        29.90S
MERRILL        CLOUDY    74  63  69 W8        29.88F
$$

WIZ029-030-035-036-043>047-292200-
CENTRAL WISCONSIN

CITY           SKY/WX    TMP DP  RH WIND       PRES   REMARKS
WAUSAU         CLOUDY    76  63  64 W8        29.85F
MOSINEE        MOSUNNY   75  64  69 SW10      29.88F
MARSHFIELD     CLOUDY    76  62  62 W10       29.87F
STEVENS POINT  PTSUNNY   77  60  56 SW9       29.88S
WAUPACA        PTSUNNY   82  64  55 S10       29.88F HX  83
WAUTOMA        NOT AVBL
WISC RAPIDS    PTSUNNY   78  60  53 SW10      29.88F
CAMP DOUGLAS   NOT AVBL
$$

WIZ011>013-019>022-031-037>040-048>050-292200-
NORTHEAST WISCONSIN

CITY           SKY/WX    TMP DP  RH WIND       PRES   REMARKS
ANTIGO         CLOUDY    72  63  74 SW8       29.90S
SHAWANO        CLOUDY    80  65  60 S9        29.88F HX  82
OCONTO         PTSUNNY   78  65  66 S8        29.87F
STURGEON BAY   PTSUNNY   66  61  82 S14       29.92F
GREEN BAY      CLOUDY    79  65  62 S9        29.88F HX  81
MANITOWOC      CLOUDY    64  61  88 SE5       29.91F
APPLETON       PTSUNNY   75  59  57 S12G21    29.89F
CLINTONVILLE   CLOUDY    79  61  53 SW12G17   29.88F HX  80
OSHKOSH        LGT RAIN  71  67  87 SW7       29.88F FOG
$$

WIZ032>034-041-042-053>061-292200-
SOUTHWEST WISCONSIN

CITY           SKY/WX    TMP DP  RH WIND       PRES   REMARKS
LA CROSSE      CLOUDY    78  66  66 W7        29.85F HX  80
SPARTA         CLOUDY    76  60  58 S6        29.87F
VIROQUA        CLOUDY    77  63  62 S10       29.90F
BOSCOBEL       PTSUNNY   82  64  54 SW7       29.87F HX  83
PRAIRIE DU CHI MOSUNNY   80  62  54 SW5       29.87F HX  81
PLATTEVILLE    PTSUNNY   73  68  82 SW9       29.91S
$$

WIZ056-057-062-063-064-067-068-292200-
SOUTH CENTRAL WISCONSIN

CITY           SKY/WX    TMP DP  RH WIND       PRES   REMARKS
REEDSBURG      PTSUNNY   77  66  68 SW8       29.88F
BARABOO/DELLS  MOSUNNY   78  64  63 SW6       29.89F
LONE ROCK      NOT AVBL
MINERAL POINT  PTSUNNY   77  66  69 SW7       29.91F
MADISON        PTSUNNY   77  64  64 S12       29.87F
MIDDLETON      PTSUNNY   78  63  60 SW13      29.90F
WATERTOWN      PTSUNNY  N/A N/A N/A S6        29.89F
MONROE         PTSUNNY   77  68  73 S10       29.91F
JANESVILLE     PTSUNNY   75  55  50 SW13      29.90F
$$

WIZ051-052-058>065-066-070>072-292200-
SOUTHEAST WISCONSIN

CITY           SKY/WX    TMP DP  RH WIND       PRES   REMARKS
MILWAUKEE      PTSUNNY   74  67  78 S16       29.91F
WAUKESHA       RAIN      72  66  83 S8        29.93F FOG
MILWAUKEE/TIMM LGT RAIN  70  64  83 SW8       29.92S
RACINE         LGT RAIN  68  64  87 S8        29.93F FOG
BURLINGTON     PTSUNNY   72  66  83 S6        29.92F
KENOSHA        CLOUDY    73  68  84 SE6       29.91F HAZE
FOND DU LAC    CLOUDY    78  66  66 S12       29.89F HX  80
SHEBOYGAN      CLOUDY    69  66  90 S8        29.91F
WEST BEND      CLOUDY    70  66  88 CALM      29.91F
JUNEAU         PTSUNNY   76  66  70 S14       29.91F
$$

LSZ147-162-292200-
LAKE SUPERIOR

STATION/POSITION TIME  TEMP    WIND        PRES    WAVE
                       AIR SEA DIR/SP/G            HT/PER
                 (UTC) (F)     (DEG/KT/KT) (MB)    (FT/S)
W MID LAKE BUOY  1950   41 37  270/ 12/ 14   N/A     1
DEVILS ISLAND    2000   47     260/ 12/ 13   N/A
PORT WING        2000   56     300/  3/  4   N/A
SAXON HARBOR     2040   59        CALM       N/A
$$

LMZ867-665-643>646-292200-
LAKE MICHIGAN

STATION/POSITION TIME  TEMP    WIND        PRES    WAVE
                       AIR SEA DIR/SP/G            HT/PER
                 (UTC) (F)     (DEG/KT/KT) (MB)    (FT/S)
CHAMBERS ISLAND  2000   71     150/  6/ 10   N/A
N MID LAKE BUOY  1950   43 37  190/ 10/ 12   N/A     1/ 3
NORTHPORT PIER   2000   54     150/  8/ 19   N/A
SISTER BAY       2018   71     180/ 13/ 17   N/A
ALGOMA LAKESHORE 2008          190/  6/  8   N/A
KEWAUNEE LAKESHO 1900   51     180/ 11/ 14   N/A
SHEBOYGAN LAKESH 2000   62     190/ 16/ 18   N/A
PORT WASHINGTON  1900   60      CALM  /  4   N/A
ATWATER BUOY     2000   55     160/ 10/ 14   N/A
MILWAUKEE LAKESH 2000   56     140/ 11/ 13   N/A
S MID LAKE BUOY  1950   49 38  170/  8/ 10   N/A     0
KENOSHA   LAKESH 2000   61     170/ 12/ 15   N/A
$$

TC  - TEMPERATURE IN CELSIUS
VSB - VISIBILITY IN STATUTE MILES
WCI - WIND CHILL INDEX
HX  - HEAT INDEX




USA.gov is the U.S. government's official web portal to all federal, state and local government web resources and services.